Date String (YYYY-MM-DD hh:mm:ss) UTC,Instrument flags,absolute air pressure of the measurement (hPa),sample flow rate (lpm),inlet stack bypass flow (lpm),air temperature of the measurement (°C),ambient temperature measured by the external sensor (°C),aerosol sample conditioner tube jacket temperature (°C),OPC LED temperature (°C),internal box temperature (°C),relative humidity of the measurement (%),span deviation,mass concentration of particles derived from Lorenz-Mie calculation of OPC scattering (μg/m³),mass concentration of particles derived from Lorenz-Mie calculation of OPC scattering (μg/m³),mass concentration of particles derived from Lorenz-Mie calculation of OPC scattering (μg/m³)
DateTimeUTC,F1_M11,P_M11,Q1_M11,Q2_M11,T1_M11,T2_M11,T3_M11,T4_M11,T5_M11,U1_M11,ZSPAN_M11,X2_M11,X0_M11,X1_M11
2024-06-12 09:00:00,SystemResetWarning,0828.4,5.00,000.00,030.0,028.8,000.0,038.6,031.6,014.0,0000.0,0004.29,0010.50,0003.75
2024-06-12 09:01:00,SystemResetWarning,0828.4,5.00,000.00,030.1,029.0,000.0,038.6,031.7,013.9,0000.0,0004.33,0010.15,0003.76
2024-06-12 09:02:00,SystemResetWarning,0828.4,5.00,000.00,030.1,029.1,000.0,038.6,031.7,013.9,0000.0,0004.35,0010.33,0003.76
2024-06-12 09:03:00,SystemResetWarning,0828.4,4.99,000.00,030.1,029.2,000.0,038.6,031.8,013.9,0000.0,0004.31,0010.27,0003.75
2024-06-12 09:04:00,SystemResetWarning,0828.4,4.99,000.00,030.1,029.3,000.0,038.6,031.8,013.8,0000.0,0004.27,0010.12,0003.74
2024-06-12 09:05:00,SystemResetWarning,0828.4,5.00,000.00,030.2,029.4,000.0,038.6,031.8,013.9,0000.0,0004.24,0009.95,0003.73
2024-06-12 09:06:00,SystemResetWarning,0828.4,5.00,000.00,030.2,029.4,000.0,038.6,031.9,013.8,0000.0,0004.23,0008.84,0003.73
2024-06-12 09:07:00,SystemResetWarning,0828.5,5.01,000.00,030.2,029.5,000.0,038.6,031.9,013.8,0000.0,0004.20,0008.44,0003.74
2024-06-12 09:08:00,SystemResetWarning,0828.5,5.01,000.00,030.3,029.6,000.0,038.6,032.0,013.6,0000.0,0004.22,0008.33,0003.74
2024-06-12 09:09:00,SystemResetWarning,0828.5,5.00,000.00,030.3,029.6,000.0,038.6,032.0,013.6,0000.0,0004.18,0008.33,0003.73
2024-06-12 09:10:00,SystemResetWarning,0828.4,4.99,000.00,030.3,029.6,000.0,038.6,032.0,013.6,0000.0,0004.17,0007.74,0003.74
2024-06-12 09:11:00,SystemResetWarning,0828.5,5.00,000.00,030.3,029.7,000.0,038.6,032.0,013.6,0000.0,0004.16,0007.84,0003.73
2024-06-12 09:12:00,SystemResetWarning,0828.5,5.00,000.00,030.4,029.7,000.0,038.6,032.1,013.6,0000.0,0004.16,0007.77,0003.73
2024-06-12 09:13:00,SystemResetWarning,0828.5,5.01,000.00,030.4,029.8,000.0,038.6,032.1,013.8,0000.0,0004.13,0007.56,0003.72
2024-06-12 09:14:00,SystemResetWarning,0828.4,5.01,000.00,030.4,029.8,000.0,038.7,032.1,013.6,0000.0,0004.15,0007.57,0003.72
2024-06-12 09:15:00,SystemResetWarning,0828.5,4.98,000.00,030.5,029.8,000.0,038.7,032.2,013.4,0000.0,0004.17,0007.80,0003.73
2024-06-12 09:16:00,SystemResetWarning,0828.5,4.99,000.00,030.5,029.9,000.0,038.7,032.2,013.3,0000.0,0004.19,0007.91,0003.73
2024-06-12 09:17:00,SystemResetWarning,0828.5,5.00,000.00,030.5,029.9,000.0,038.7,032.2,013.5,0000.0,0004.20,0007.98,0003.72
2024-06-12 09:18:00,SystemResetWarning,0828.5,5.00,000.00,030.5,029.9,000.0,038.7,032.2,013.5,0000.0,0004.22,0008.19,0003.71
2024-06-12 09:19:00,SystemResetWarning,0828.6,5.01,000.00,030.6,029.9,000.0,038.8,032.3,013.4,0000.0,0004.18,0008.27,0003.70
2024-06-12 09:20:00,SystemResetWarning,0828.6,5.00,000.00,030.6,030.0,000.0,038.8,032.3,013.5,0000.0,0004.21,0008.22,0003.71
2024-06-12 09:21:00,SystemResetWarning,0828.6,4.99,000.00,030.6,030.0,000.0,038.8,032.3,013.4,0000.0,0004.22,0008.04,0003.71
2024-06-12 09:22:00,SystemResetWarning,0828.6,5.00,000.00,030.6,030.0,000.0,038.8,032.3,013.7,0000.0,0004.20,0007.83,0003.71
2024-06-12 09:23:00,SystemResetWarning,0828.6,4.99,000.00,030.6,030.0,000.0,038.8,032.3,013.4,0000.0,0004.19,0007.88,0003.70
2024-06-12 09:24:00,SystemResetWarning,0828.6,5.00,000.00,030.7,030.0,000.0,038.9,032.3,013.2,0000.0,0004.21,0008.42,0003.70
2024-06-12 09:25:00,SystemResetWarning,0828.6,5.01,000.00,030.7,030.0,000.0,038.9,032.3,012.9,0000.0,0004.18,0009.41,0003.69
2024-06-12 09:26:00,SystemResetWarning,0828.5,5.00,000.00,030.7,030.1,000.0,038.9,032.4,012.9,0000.0,0004.19,0010.28,0003.68
2024-06-12 09:27:00,SystemResetWarning,0828.6,5.01,000.00,030.7,030.1,000.0,038.9,032.4,013.0,0000.0,0004.20,0010.64,0003.67
2024-06-12 09:28:00,SystemResetWarning,0828.6,4.99,000.00,030.7,030.1,000.0,038.9,032.4,013.0,0000.0,0004.20,0010.65,0003.66
2024-06-12 09:29:00,SystemResetWarning,0828.6,5.00,000.00,030.7,030.1,000.0,039.0,032.4,014.1,0000.0,0004.17,0010.48,0003.65
2024-06-12 09:30:00,SystemResetWarning,0828.6,5.00,000.00,030.8,030.1,000.0,039.0,032.4,014.1,0000.0,0004.17,0010.31,0003.65
2024-06-12 09:31:00,SystemResetWarning,0828.7,5.00,000.00,030.8,030.1,000.0,039.0,032.4,013.9,0000.0,0004.16,0010.33,0003.64
2024-06-12 09:32:00,SystemResetWarning,0828.7,5.00,000.00,030.8,030.2,000.0,039.0,032.5,013.8,0000.0,0004.16,0010.77,0003.65
2024-06-12 09:33:00,SystemResetWarning,0828.7,5.01,000.00,030.8,030.2,000.0,039.1,032.5,013.6,0000.0,0004.16,0010.91,0003.65
2024-06-12 09:34:00,SystemResetWarning,0828.7,4.99,000.00,030.8,030.2,000.0,039.1,032.5,013.6,0000.0,0004.14,0010.80,0003.65
2024-06-12 09:35:00,SystemResetWarning,0828.7,5.00,000.00,030.9,030.2,000.0,039.1,032.5,013.6,0000.0,0004.12,0010.30,0003.66
2024-06-12 09:36:00,SystemResetWarning,0828.7,4.99,000.00,030.9,030.2,000.0,039.1,032.6,013.8,0000.0,0004.12,0009.32,0003.67
2024-06-12 09:37:00,SystemResetWarning,0828.6,5.00,000.00,030.9,030.3,000.0,039.1,032.5,013.7,0000.0,0004.13,0008.29,0003.68
2024-06-12 09:38:00,SystemResetWarning,0828.6,5.00,000.00,030.9,030.3,000.0,039.1,032.5,013.4,0000.0,0004.14,0007.97,0003.69
2024-06-12 09:39:00,SystemResetWarning,0828.6,5.00,000.00,030.9,030.3,000.0,039.2,032.6,013.3,0000.0,0004.14,0007.98,0003.68
2024-06-12 09:40:00,SystemResetWarning,0828.6,5.00,000.00,030.9,030.3,000.0,039.2,032.6,013.1,0000.0,0004.14,0007.96,0003.68
2024-06-12 09:41:00,SystemResetWarning,0828.7,5.00,000.00,031.0,030.3,000.0,039.2,032.6,013.0,0000.0,0004.13,0007.98,0003.68
2024-06-12 09:42:00,SystemResetWarning,0828.6,5.00,000.00,031.0,030.3,000.0,039.2,032.6,013.3,0000.0,0004.12,0007.92,0003.67
2024-06-12 09:43:00,SystemResetWarning,0828.6,5.00,000.00,031.0,030.3,000.0,039.3,032.6,013.2,0000.0,0004.09,0007.44,0003.65
2024-06-12 09:44:00,SystemResetWarning,0828.7,5.00,000.00,031.0,030.3,000.0,039.3,032.6,013.4,0000.0,0004.09,0007.04,0003.64
2024-06-12 09:45:00,SystemResetWarning,0828.7,5.00,000.00,031.0,030.4,000.0,039.3,032.6,014.4,0000.0,0004.14,0007.45,0003.65
2024-06-12 09:46:00,SystemResetWarning,0828.8,5.00,000.00,031.0,030.4,000.0,039.3,032.7,015.1,0000.0,0004.15,0008.07,0003.66
2024-06-12 09:47:00,SystemResetWarning,0828.8,5.00,000.00,031.0,030.4,000.0,039.3,032.7,015.5,0000.0,0004.17,0008.04,0003.68
2024-06-12 09:48:00,SystemResetWarning,0828.8,5.00,000.00,031.1,030.4,000.0,039.3,032.7,015.3,0000.0,0004.18,0008.00,0003.71
2024-06-12 09:49:00,SystemResetWarning,0828.8,5.00,000.00,031.1,030.4,000.0,039.4,032.7,014.9,0000.0,0004.19,0007.97,0003.74
2024-06-12 09:50:00,SystemResetWarning,0828.8,4.99,000.00,031.1,030.4,000.0,039.4,032.7,014.5,0000.0,0004.18,0008.47,0003.77
2024-06-12 09:51:00,SystemResetWarning,0828.7,4.99,000.00,031.1,030.4,000.0,039.4,032.7,014.4,0000.0,0004.21,0008.51,0003.80
2024-06-12 09:52:00,SystemResetWarning,0828.7,5.01,000.00,031.1,030.4,000.0,039.4,032.8,014.6,0000.0,0004.25,0008.51,0003.83
2024-06-12 09:53:00,SystemResetWarning,0828.7,5.01,000.00,031.1,030.4,000.0,039.4,032.8,014.6,0000.0,0004.29,0009.15,0003.86
2024-06-12 09:54:00,SystemResetWarning,0828.7,5.00,000.00,031.1,030.4,000.0,039.4,032.8,014.5,0000.0,0004.34,0009.29,0003.90
2024-06-12 09:55:00,SystemResetWarning,0828.8,5.00,000.00,031.1,030.5,000.0,039.4,032.8,014.6,0000.0,0004.40,0009.53,0003.94
2024-06-12 09:56:00,SystemResetWarning,0828.9,5.01,000.00,031.1,030.5,000.0,039.4,032.8,014.6,0000.0,0004.41,0009.30,0003.97
2024-06-12 09:57:00,SystemResetWarning,0829.0,5.00,000.00,031.2,030.5,000.0,039.5,032.8,014.7,0000.0,0004.42,0008.71,0004.00
2024-06-12 09:58:00,SystemResetWarning,0829.0,5.00,000.00,031.2,030.5,000.0,039.5,032.8,014.6,0000.0,0004.47,0008.72,0004.03
2024-06-12 09:59:00,SystemResetWarning,0829.0,5.00,000.00,031.2,030.5,000.0,039.5,032.9,014.6,0000.0,0004.50,0008.73,0004.03
